Volver al catálogo

COSMOS 1275 DEB

ActivoPO
NORAD 12733·DEBRIS·🇷🇺 Russia

Lanzado Jun 4, 1981 desde Plesetsk Cosmodrome

Loading…

Próximos Pases (próximas 24 horas)

TLE

ActualizadoSource: Space-Track

Época: Sep 14, 2026, 06:11 UTC

1 12733U 81053CA  26257.25774100  .00003213  00000-0  10103-2 0  9997
2 12733  82.8567 191.4156 0018875 354.3227   5.7748 14.40135729309308

Sigue COSMOS 1275 DEB en tiempo real con AllMySat

Download on the App Store